Free Severe Weather Alerts by Email and Text Message   

 
Follow iAlert.com on twitter @ialertcom
Search For Active Alerts in Your Area  
  Hi Guest:  [ Sign-up / Services ] [ Login ]

Current weather by "City, St" or "zip code"  

 

Advertise Here

Hazardous Weather Conditions

No active alerts for CHICAGO, ILLINOIS

Current Conditions: CHICAGO, ILLINOIS

Overcast


33.0 F

Last Updated on Dec 15 2017, 4:52 pm CST
Humidity: 70%
Wind Speed: SW 6.9 mph
Barometer 29.91 in
Dewpoint: 24.1 F
Visibility: 10.00 mi
Precip: --
Heat Index: NA
Wind Chill: 27 F
Current conditions at:

Chicago / Wheeling, Pal-Waukee Airport, IL (KPWK)

Lat: 42.12 Lon: -87.904

Local Radar Image active severe weather and emergency alerts image image weather storm and storm spotter reports image weather observation monitoring service image
Local
Radar
Active
Alerts
Storm Reports Weather
Monitoring

Weather Alert Notification Services


ialert severe weather and emergency alerts by text message and email ialert daily weather forecast by email and text message service ialert real-time weather-observation monitoring and alert notification service ialert storm report monitoring alert notification

Observation History for CHICAGO, ILLINOIS


Time Wind
(mph)
Vis
(mi)
Weather Precip (in) Temperature (F) Relative
Humidity
Wind
Chill
(°F)
Heat
Index
(°F)
Pressure
Air Dwpt altimeter
(in)
sea level
(mb)
4:52 pm CST SW 6.9 10.00 Overcast -- 33.0 24.1 70% 27 NA 29.91 1013.4
3:52 pm CST SW 11.5 10.00 Overcast -- 33.0 24.1 70% 24 NA 29.91 1013.6
2:52 pm CST SW 10.4 10.00 Overcast -- 32.0 21.9 66% 24 NA 29.90 1013.2
1:52 pm CST W 11.5 G 23.0 10.00 Overcast -- 32.0 19.9 61% 23 NA 29.90 1013.3
12:52 pm CST W 15.0 10.00 Overcast -- 32.0 18.0 56% 22 NA 29.90 1013.3
11:52 am CST W 13.8 G 21.9 10.00 Mostly Cloudy -- 32.0 17.1 54% 22 NA 29.92 1013.8
10:52 am CST NW 13.8 G 23.0 10.00 Mostly Cloudy -- 30.0 14.0 51% 19 NA 29.93 1014.3
9:52 am CST NW 12.7 10.00 Overcast -- 28.0 16.0 60% 17 NA 29.94 1014.5
8:52 am CST NW 16.1 G 23.0 10.00 Overcast -- 27.0 15.1 61% 15 NA 29.93 1014.6
7:52 am CST W 9.2 G 23.0 10.00 Overcast -- 26.0 17.1 69% 17 NA 29.93 1014.4
6:52 am CST W 10.4 10.00 Overcast -- 26.0 19.0 75% 16 NA 29.92 1014.0
5:52 am CST W 15.0 G 29.9 10.00 Overcast -- 25.0 17.1 72% 13 NA 29.92 1014.2
4:52 am CST SW 8.1 10.00 Overcast -- 25.0 18.0 75% 16 NA 29.92 1014.0
3:52 am CST SW 10.4 10.00 Overcast -- 25.0 17.1 72% 15 NA 29.94 1014.7
2:52 am CST SW 6.9 10.00 Overcast -- 24.0 15.1 68% 16 NA 29.96 1015.2
1:52 am CST SW 8.1 10.00 Overcast -- 24.0 16.0 71% 15 NA 29.97 1015.7
12:52 am CST W 5.8 10.00 Overcast -- 24.0 14.0 65% 17 NA 30.00 1016.7
11:52 pm CST SW 4.6 10.00 Overcast -- 23.0 12.0 63% 17 NA 30.02 1017.3
10:52 pm CST SW 4.6 10.00 Overcast -- 23.0 12.0 63% 17 NA 30.05 1018.4
9:52 pm CST 4.6 10.00 Overcast -- 23.0 12.0 63% 17 NA 30.07 1019.1
8:52 pm CST SW 4.6 10.00 Overcast -- 22.0 12.0 66% 16 NA 30.08 1019.5
7:52 pm CST SW 3.5 10.00 Mostly Cloudy -- 22.0 12.0 66% NA NA 30.08 1019.6
6:52 pm CST N 0.0 10.00 Fair -- 23.0 10.9 60% NA NA 30.08 1019.8
5:52 pm CST W 3.5 10.00 Fair -- 23.0 10.9 60% NA NA 30.09 1019.9

Regional Weather Observation:


Chicago, Chicago-OHare International Airport, IL (KORD)

Overcast
33.0 F

Chicago/Waukegan Regional Airport, IL (KUGN)

Overcast
31.0 F

Chicago, Chicago Midway Airport, IL (KMDW)

Light Snow
34.0 F

Kenosha, Kenosha Regional Airport, WI (KENW)

Overcast
31.0 F

Chicago / West Chicago, Dupage Airport, IL (KDPA)

Overcast
32.0 F

Racine, Batten International Airport, WI (KRAC)

Overcast
31.0 F

Advertise Here


Advertise Here